TA2R-16 Weather Reports


time (UTC)temp
C
wind
direction
speed
KPH
gust
KPH
rain 1hr
cm
rain 24hr
cm
rain mn
cm
humidity
%
barometer
mb
20260504050002 26 0 0.0 0.0 0.00 0.00 0.00 31 1002.2
20260504043002 25 0 0.0 0.0 0.00 0.00 0.00 33 1002.2
20260504040002 25 0 0.0 0.0 0.00 0.00 0.00 33 1002.0
20260504033002 25 0 0.0 0.0 0.00 0.00 0.00 33 1001.8
20260504030002 25 0 0.0 0.0 0.00 0.00 0.00 33 1001.6
20260504023002 25 0 0.0 0.0 0.00 0.00 0.00 33 1001.3
20260504020001 25 0 0.0 0.0 0.00 0.00 0.00 33 1001.3
20260504013002 26 0 0.0 0.0 0.00 0.00 0.00 31 1001.3
20260504010002 26 0 0.0 0.0 0.00 0.00 0.00 31 1001.1
20260504003003 26 0 0.0 0.0 0.00 0.00 0.00 30 1001.1
20260504000002 26 0 0.0 0.0 0.00 0.00 0.00 28 1001.0
20260503230003 28 0 0.0 0.0 0.00 0.00 0.00 26 1001.0
20260503223005 30 0 0.0 0.0 0.00 0.00 0.00 23 1000.9
20260503220002 30 0 0.0 0.0 0.00 0.00 0.00 25 1001.0
20260503213002 30 0 0.0 0.0 0.00 0.00 0.00 24 1001.2
20260503210001 30 0 0.0 0.0 0.00 0.00 0.00 24 1001.2
20260503200002 30 0 0.0 0.0 0.00 0.00 0.00 25 1001.5
20260503193002 30 0 0.0 0.0 0.00 0.00 0.00 26 1001.5
20260503190001 30 0 0.0 0.0 0.00 0.00 0.00 26 1001.5
20260503183003 30 0 0.0 0.0 0.00 0.00 0.00 26 1001.7
20260503180008 29 0 0.0 0.0 0.00 0.00 0.00 27 1001.6
20260503173002 29 0 0.0 0.0 0.00 0.00 0.00 27 1001.6